Homer, AK

11:43 PM AKST on December 12, 2017 (GMT -0900)
Homer

Weather History for PAHO - November, 2012

Change the Weather History Date:

Wednesday, November 7, 2012

  Actual Average Record
Temperature  
Mean Temperature 20 °F -  
Max Temperature 28 °F 37 °F 51 °F (1979)
Min Temperature 12 °F 25 °F 4 °F (1956)
Degree Days  
Heating Degree Days 45    
Moisture  
Dew Point 9 °F    
Average Humidity 63    
Maximum Humidity 84    
Minimum Humidity 47    
Precipitation  
Precipitation 0.00 in - - ()
Sea Level Pressure  
Sea Level Pressure 30.29 in    
Wind  
Wind Speed 3 mph (NE)    
Max Wind Speed 8 mph    
Max Gust Speed -    
Visibility 10 miles    
Events      
Averages and records for this station are not official NWS values.
T = Trace of Precipitation, MM = Missing Value Source: NWS Daily Summary

Daily Weather History Graph

Daily Weather History Graph

Search for Another Location

Airport or City:

Trip Planner

Search our weather history database for the weather conditions in past years. The results will help you decide how hot, cold, wet, or windy it might be!

Date:

Astronomy

Nov. 07, 2012 Rise Set
Actual Time 8:43 AM AKST 4:54 PM AKST
Civil Twilight 7:57 AM AKST 5:41 PM AKST
Nautical Twilight 7:07 AM AKST 6:30 PM AKST
Astronomical Twilight 6:19 AM AKST 7:18 PM AKST
Moon 12:09 AM AKST (11/7) 2:37 PM AKST (11/7)
Length of Visible Light 9h 43m
Length of Day
8h 11m
Last Quarter, 41% of the Moon is Illuminated
Nov 7
Last Quarter
Nov 13
New
Nov 20
First Quarter
Nov 28
Full
Dec 6
Last Quarter

Hourly Weather History & Observations

Time (AKST) Temp. Windchill Dew Point Humidity Pressure Visibility Wind Dir Wind Speed Gust Speed Precip Events Conditions
12:53 AM 12.9 °F - 8.1 °F 81% 30.19 in 10.0 mi Calm Calm - N/A   Clear
1:53 AM 12.9 °F - 8.1 °F 81% 30.19 in 10.0 mi Calm Calm - N/A   Clear
3:53 AM 12.9 °F - 8.1 °F 81% 30.22 in 10.0 mi Calm Calm - N/A   Clear
4:53 AM 21.0 °F 16.2 °F 6.1 °F 53% 30.23 in 10.0 mi East 3.5 mph - N/A   Clear
5:53 AM 12.9 °F 6.9 °F 5.0 °F 71% 30.25 in 10.0 mi East 3.5 mph - N/A   Clear
6:53 AM 12.9 °F - 7.0 °F 77% 30.26 in 10.0 mi Calm Calm - N/A   Clear
7:53 AM 12.9 °F - 6.1 °F 74% 30.28 in 10.0 mi Calm Calm - N/A   Clear
8:53 AM 12.0 °F 4.1 °F 8.1 °F 84% 30.28 in 10.0 mi NE 4.6 mph - N/A   Clear
9:53 AM 19.0 °F 12.3 °F 7.0 °F 59% 30.30 in 10.0 mi NE 4.6 mph - N/A   Clear
10:53 AM 23.0 °F 15.8 °F 9.0 °F 55% 30.31 in 10.0 mi NE 5.8 mph - N/A   Clear
11:53 AM 27.0 °F 19.5 °F 12.9 °F 56% 30.32 in 10.0 mi NE 6.9 mph - N/A   Clear
12:53 PM 28.9 °F 22.8 °F 12.0 °F 49% 30.32 in 10.0 mi ENE 5.8 mph - N/A   Clear
1:53 PM 28.9 °F 21.1 °F 10.9 °F 47% 30.32 in 10.0 mi ENE 8.1 mph - N/A   Clear
2:53 PM 28.9 °F 21.1 °F 12.9 °F 51% 30.32 in 10.0 mi East 8.1 mph - N/A   Clear
3:53 PM 28.9 °F 21.9 °F 12.0 °F 49% 30.32 in 10.0 mi NE 6.9 mph - N/A   Clear
4:53 PM 27.0 °F 23.0 °F 10.0 °F 49% 30.33 in 10.0 mi NNE 3.5 mph - N/A   Clear
5:53 PM 19.0 °F 12.3 °F 10.0 °F 68% 30.33 in 10.0 mi NE 4.6 mph - N/A   Clear
6:53 PM 21.0 °F 16.2 °F 9.0 °F 60% 30.33 in 10.0 mi NE 3.5 mph - N/A   Clear
7:53 PM 21.0 °F 12.4 °F 8.1 °F 57% 30.33 in 10.0 mi NE 6.9 mph - N/A   Clear
8:53 PM 21.9 °F 17.2 °F 8.1 °F 55% 30.33 in 10.0 mi NE 3.5 mph - N/A   Clear
9:53 PM 18.0 °F 12.7 °F 9.0 °F 68% 30.34 in 10.0 mi NE 3.5 mph - N/A   Clear
10:53 PM 21.0 °F 16.2 °F 8.1 °F 57% 30.34 in 10.0 mi NE 3.5 mph - N/A   Clear
11:53 PM 21.0 °F 14.6 °F 9.0 °F 60% 30.34 in 10.0 mi NE 4.6 mph - N/A   Clear